Location: Bothwell
(42.3833°S, 147.0000°E)
Time: 00:57:51
(UTC+10:00)

FO-99 - Visible Passes

Search period start: 01 October 2022 23:00
Search period end: 12 October 2022 00:00
Orbit: 452 x 481 km, 97.1° (Epoch: 30 September)

Date Brightness Start Highest point End Pass type
(mag) Time Alt. Az. Time Alt. Az. Time Alt. Az.
02 Oct ? 21:09:05 10° SSE 21:12:45 89° WSW 21:13:30 55° NNW visible
03 Oct ? 20:39:27 10° SSE 20:42:51 36° E 20:43:33 32° NE visible
03 Oct ? 22:13:28 10° SSW 22:15:38 15° WSW 22:17:34 11° W visible
04 Oct ? 20:10:28 10° SE 20:12:46 16° E 20:13:34 15° ENE visible
04 Oct ? 21:42:40 10° S 21:45:57 32° WSW 21:47:34 22° WNW visible
05 Oct ? 21:12:28 10° S 21:16:07 80° WSW 21:17:33 35° NNW visible
06 Oct ? 20:42:39 10° SSE 20:46:07 39° E 20:47:29 28° NE visible
06 Oct ? 22:16:56 10° SW 22:18:51 14° WSW 22:20:45 10° W visible
07 Oct ? 20:13:28 10° SE 20:15:57 17° E 20:17:22 14° ENE visible
07 Oct ? 21:45:53 10° S 21:49:06 29° WSW 21:51:22 16° NW visible
08 Oct ? 21:15:32 10° S 21:19:09 72° WSW 21:21:13 24° NNW visible
09 Oct ? 20:45:34 10° SSE 20:49:04 43° E 20:51:01 22° NNE visible
09 Oct ? 22:20:05 10° SW 22:21:44 13° WSW 22:23:23 10° W visible
10 Oct ? 20:16:10 10° SE 20:18:48 19° E 20:20:48 13° NE visible
10 Oct ? 21:48:47 10° SSW 21:51:53 27° WSW 21:54:47 11° NW visible
11 Oct ? 21:18:15 10° S 21:21:53 66° WSW 21:24:31 17° NNW visible
